Location: Siratepeler Tepesi
(39.1042°N, 32.0781°E)
Time: 11:22:01
(UTC+00:00)

Cosmos 1697 Rocket - Pass Details

Date: 11 April 2026
Orbit: 832 x 842 km, 71.0° (Epoch: 14 May)

Event Time Altitude Azimuth Distance (km) Brightness Sun altitude
Rises 23:19:15 0° 343° (NNW) 3,399 6.4 -38.2°
Reaches altitude 10° 23:21:51 10° 351° (N) 2,459 5.6 -38.0°
Enters shadow 23:24:57 29° 13° (NNE) 1,492 4.4 -37.7°
